Location: Lane
(33.5226°N, 79.8788°W)
Time: 15:29:06
(UTC+00:00)

Tiros 1 - Visible Passes

Search period start: 03 October 2022 00:00
Search period end: 13 October 2022 00:00
Orbit: 629 x 663 km, 48.4° (Epoch: 03 October)

Date Brightness Start Highest point End Pass type
(mag) Time Alt. Az. Time Alt. Az. Time Alt. Az.
03 Oct 10.1 08:12:58 12° NNE 08:12:58 12° NNE 08:13:48 10° NE visible
03 Oct 8.6 09:50:37 12° NW 09:54:33 33° NNE 09:58:49 10° E visible
04 Oct 9.4 08:37:53 19° NNE 08:37:53 19° NNE 08:40:56 10° ENE visible
04 Oct 7.4 10:15:39 10° NW 10:20:23 68° NE 10:25:02 10° ESE visible
05 Oct 8.6 09:02:56 30° N 09:03:37 31° NNE 09:07:49 10° E visible
05 Oct 7.4 10:41:22 10° WNW 10:45:57 51° SW 10:50:28 10° SSE visible
06 Oct 7.5 09:28:08 43° NNW 09:29:28 62° NE 09:34:08 10° ESE visible
07 Oct 9.9 08:15:46 15° E 08:15:46 15° E 08:16:48 10° E visible
07 Oct 7.2 09:53:28 37° WNW 09:55:04 57° SW 09:59:40 10° SE visible
08 Oct 9.2 08:41:14 24° ESE 08:41:14 24° ESE 08:43:12 10° ESE visible
08 Oct 8.4 10:18:56 20° WSW 10:20:27 23° SW 10:24:07 10° S visible
09 Oct 8.7 00:25:37 10° S 00:28:05 22° SSE 00:28:05 22° SSE visible
09 Oct 8.8 09:06:47 25° SSE 09:06:47 25° SSE 09:08:50 10° SE visible
10 Oct 7.9 00:50:12 10° SW 00:53:33 43° SSW 00:53:33 43° SSW visible
10 Oct 9.2 09:32:25 15° S 09:32:25 15° S 09:33:27 10° S visible
10 Oct 8.5 23:34:57 10° S 23:38:39 23° SE 23:41:11 15° E visible
11 Oct 8.5 01:15:49 10° WSW 01:18:52 37° W 01:18:52 37° W visible
11 Oct 7.3 23:59:22 10° SW 00:04:01 56° SE 00:06:22 28° ENE visible
12 Oct 9.6 01:42:11 10° W 01:44:03 20° WNW 01:44:03 20° WNW visible
